#timestamp,LO_Frequency,Hit,StdDev 
1509526815.2,286046990.2,N
1509526835.1,286046989.0,N
1509526836.0,286046989.0,N
1509526855.8,286046988.6,N
1509526875.6,286046991.5,N
1509526895.5,286046990.6,N
1509526915.3,286046989.3,N
1509526935.1,286046987.0,N
1509526955.9,286046989.4,N
1509526975.7,286046989.9,N
1509526995.5,286046989.0,N
1509527015.4,286046994.5,N
1509527035.2,286046999.0,N
1509527055.0,286046996.5,N
1509527055.9,286046996.5,N
1509527075.8,286046995.1,N
1509527095.6,286046993.5,N
1509527115.4,286046993.8,N
1509527135.3,286046992.8,N
1509527155.1,286046990.8,N
1509527156.0,286046990.8,N
1509527175.8,286046991.8,N
1509527195.7,286046992.7,N
1509527215.5,286046990.1,N
1509527235.3,286046994.0,N
1509527255.2,286046996.2,N
1509527275.9,286046997.5,N
1509527295.7,286046997.5,N
1509527315.6,286046995.6,N
1509527335.4,286046993.6,N
1509527355.2,286046996.3,N
1509527375.1,286046996.0,N
1509527376.0,286046996.0,N
1509527395.8,286046994.3,N
1509527415.7,286046990.2,Y
1509527435.5,286046998.8,P
1509527455.3,286047000.6,N
1509527475.2,286046998.5,N
1509527495.9,286047002.0,N
1509527515.7,286047001.4,N
1509527535.6,286047004.0,N
1509527555.4,286047002.4,N
1509527575.2,286046997.6,N
1509527595.1,286046994.6,N
1509527596.0,286046994.6,N
1509527615.8,286046998.0,N
1509527635.6,286046997.3,N
1509527655.5,286046996.3,N
1509527675.3,286046997.7,N
1509527695.1,286046996.8,N
1509527715.9,286046998.1,N
1509527735.7,286047000.9,N
1509527755.5,286046998.3,N
1509527775.4,286046995.3,N
1509527795.2,286046995.6,N
1509527815.0,286047000.3,N
1509527815.9,286047000.3,N
1509527835.8,286046999.8,N
1509527855.6,286046996.6,N
1509527875.4,286047000.3,N
1509527895.3,286046999.1,N
1509527915.1,286047001.2,N
1509527916.0,286047001.2,N
1509527935.8,286046995.2,N
1509527955.7,286046997.8,N
1509527975.5,286046997.4,N
1509527995.3,286046997.8,N
1509528015.2,286047001.0,N
1509528035.9,286047002.8,N
1509528055.7,286047004.4,N
1509528075.6,286047001.4,N
1509528095.4,286047002.1,N
1509528115.2,286047003.8,N
1509528135.1,286047002.2,N
1509528136.0,286047002.2,N
1509528155.8,286047002.2,N
1509528175.6,286047000.2,N
1509528195.5,286046998.5,N
1509528215.3,286046998.5,N
1509528235.1,286047001.0,N
1509528255.9,286047001.6,N
1509528275.7,286047000.1,N
1509528295.5,286047002.8,N
1509528315.4,286047002.6,N
1509528335.2,286047003.9,N
1509528355.0,286047003.5,N
1509528355.9,286047003.5,N
1509528375.8,286047004.4,N
1509528395.6,286047002.0,N
1509528415.4,286046997.2,N
1509528435.3,286046995.3,N
1509528455.1,286046996.6,N
1509528475.9,286046998.7,N
1509528495.7,286046992.1,N
1509528515.5,286046990.4,Y
1509528535.4,286046994.5,P
1509528555.2,286046993.1,N
1509528575.0,286046990.1,P
1509528575.9,286046990.1,N
1509528595.8,286046992.6,N
1509528615.6,286046994.2,N
1509528635.4,286046993.7,N
1509528655.3,286046993.4,N
1509528675.1,286046994.7,N
1509528676.0,286046994.7,N
1509528695.8,286046997.5,N
1509528715.7,286046997.6,N
1509528735.5,286047002.2,N
1509528755.3,286046999.7,N
1509528775.2,286047002.4,N
1509528795.9,286047000.8,N
1509528815.7,286047001.1,N
1509528835.6,286046995.2,N
1509528855.4,286046997.1,N
1509528875.2,286046997.1,N
1509528895.1,286046998.8,N
1509528896.0,286046998.8,N
1509528915.8,286046996.7,N
1509528935.6,286046999.2,N
1509528955.5,286046997.5,N
1509528975.3,286046998.0,N
1509528995.1,286046996.2,N
1509529015.9,286046994.9,N
1509529035.7,286046996.6,N
1509529055.5,286047002.8,N
1509529075.4,286047000.4,N
1509529095.2,286047000.3,N
1509529115.0,286046997.7,N
1509529115.9,286046997.7,N
1509529135.8,286046992.4,N
1509529155.6,286046995.9,N
1509529175.4,286046997.4,N
1509529195.3,286046998.4,N
1509529215.1,286046997.1,N
1509529235.8,286046999.8,N
1509529255.7,286047002.0,N
1509529275.5,286046999.8,N
1509529295.4,286047000.9,N
1509529315.2,286046999.5,N
1509529335.0,286046999.5,N
1509529335.9,286046999.5,N
1509529355.8,286046997.3,N
1509529375.6,286046999.4,N
1509529395.4,286046998.6,N
1509529415.3,286046996.6,N
1509529435.1,286046995.1,N
1509529436.0,286046995.1,N
1509529455.8,286046996.9,N
1509529475.7,286046995.9,N
1509529495.5,286046997.5,N
1509529515.3,286046995.0,N
1509529535.2,286046992.6,Y
1509529555.0,286046998.4,P
1509529555.9,286046998.4,P
1509529575.7,286047000.2,N
1509529595.6,286047000.4,N
1509529615.4,286047002.4,N
1509529635.2,286047004.4,N
1509529655.1,286047004.0,N
1509529656.0,286047004.0,N
1509529675.8,286047005.6,N
1509529695.7,286047002.9,N
1509529715.5,286047002.3,N
1509529735.3,286046998.1,N
1509529755.2,286047001.1,N
1509529775.9,286046997.2,N
1509529795.7,286046995.2,N
1509529815.6,286046997.7,N
1509529835.4,286046995.9,N
1509529855.2,286046993.1,N
1509529875.1,286046991.7,N
1509529876.0,286046991.7,N
1509529895.8,286046992.4,N
1509529915.6,286046990.7,N
1509529935.5,286046991.2,N
1509529955.3,286046990.2,N
1509529975.1,286046992.3,N
1509529995.9,286046990.2,N
1509530015.7,286046998.0,N
1509530035.5,286046994.5,N
1509530055.4,286046991.3,N
1509530075.2,286046988.5,N
1509530095.0,286046987.0,N
1509530095.9,286046987.0,N
1509530115.8,286046989.5,N
1509530135.6,286046987.4,N
1509530155.4,286046987.8,N
1509530175.3,286046986.5,N
1509530195.1,286046989.1,N
1509530215.8,286046991.6,N
1509530235.7,286046987.8,N
1509530255.5,286046988.6,N
1509530275.3,286046987.8,N
1509530295.2,286046987.6,Y
1509530315.0,286046995.5,P
1509530315.9,286046995.5,N
1509530335.8,286046996.0,N
1509530355.6,286046995.1,N
1509530375.4,286046997.8,N
1509530395.3,286046996.9,N
